Time,TemperatureF,DewpointF,PressureIn,WindDirection,WindDirectionDegrees,WindSpeedMPH,WindSpeedGustMPH,Humidity,HourlyPrecipIn,Conditions,Clouds,dailyrainin,SoftwareType,DateUTC
2013-07-28 00:11:00,69.6,66.0,30.01,West,265,0.0,0.0,87,0.00,,,0.00,weatherlink.com 1.10,2013-07-28 04:11:00,
2013-07-28 00:26:00,69.2,66.0,30.01,West,263,2.0,4.0,88,0.00,,,0.00,weatherlink.com 1.10,2013-07-28 04:26:00,
2013-07-28 00:56:00,68.7,65.0,30.01,West,261,0.0,0.0,89,0.00,,,0.00,weatherlink.com 1.10,2013-07-28 04:56:00,
2013-07-28 01:11:00,69.0,66.0,30.01,WSW,257,0.0,2.0,90,0.00,,,0.00,weatherlink.com 1.10,2013-07-28 05:11:00,
2013-07-28 01:41:00,69.4,66.0,30.02,WSW,258,0.0,5.0,90,0.00,,,0.00,weatherlink.com 1.10,2013-07-28 05:41:00,
2013-07-28 01:56:00,69.6,66.0,30.01,WSW,258,0.0,0.0,89,0.00,,,0.00,weatherlink.com 1.10,2013-07-28 05:56:00,
2013-07-28 02:11:00,69.9,67.0,30.00,WSW,258,0.0,0.0,89,0.00,,,0.00,weatherlink.com 1.10,2013-07-28 06:11:00,
2013-07-28 02:26:00,70.1,67.0,29.99,WSW,258,0.0,0.0,88,0.00,,,0.00,weatherlink.com 1.10,2013-07-28 06:26:00,
2013-07-28 02:41:00,70.3,67.0,30.00,WSW,258,0.0,0.0,89,0.00,,,0.00,weatherlink.com 1.10,2013-07-28 06:41:00,
2013-07-28 02:56:00,70.5,67.0,30.00,WSW,258,0.0,0.0,88,0.00,,,0.00,weatherlink.com 1.10,2013-07-28 06:56:00,
2013-07-28 03:11:00,70.7,67.0,30.00,WSW,258,0.0,0.0,88,0.00,,,0.00,weatherlink.com 1.10,2013-07-28 07:11:00,
2013-07-28 03:26:00,71.0,67.0,29.99,WSW,258,0.0,1.0,86,0.00,,,0.00,weatherlink.com 1.10,2013-07-28 07:26:00,
2013-07-28 03:56:00,71.1,67.0,29.99,SE,138,0.0,4.0,86,0.00,,,0.00,weatherlink.com 1.10,2013-07-28 07:56:00,
2013-07-28 04:11:00,70.9,67.0,29.98,SE,134,0.0,6.0,87,0.00,,,0.00,weatherlink.com 1.10,2013-07-28 08:11:00,
2013-07-28 04:26:00,70.9,67.0,29.98,SE,133,0.0,4.0,87,0.00,,,0.00,weatherlink.com 1.10,2013-07-28 08:26:00,
2013-07-28 04:41:00,70.8,67.0,29.99,SE,133,0.0,4.0,87,0.00,,,0.00,weatherlink.com 1.10,2013-07-28 08:41:00,
2013-07-28 04:56:00,70.4,67.0,29.99,SE,138,1.0,5.0,88,0.00,,,0.00,weatherlink.com 1.10,2013-07-28 08:56:00,
2013-07-28 05:11:00,70.2,67.0,29.99,SE,137,0.0,4.0,88,0.00,,,0.00,weatherlink.com 1.10,2013-07-28 09:11:00,
2013-07-28 05:26:00,70.0,67.0,29.99,SE,136,0.0,4.0,89,0.00,,,0.00,weatherlink.com 1.10,2013-07-28 09:26:00,
2013-07-28 05:41:00,69.8,67.0,29.99,SE,136,0.0,3.0,91,0.00,,,0.00,weatherlink.com 1.10,2013-07-28 09:41:00,
2013-07-28 05:56:00,69.6,67.0,29.99,ESE,120,0.0,5.0,91,0.00,,,0.00,weatherlink.com 1.10,2013-07-28 09:56:00,
2013-07-28 06:11:00,69.6,67.0,29.99,ENE,57,0.0,6.0,91,0.00,,,0.00,weatherlink.com 1.10,2013-07-28 10:11:00,
2013-07-28 06:26:00,69.7,67.0,29.99,ENE,60,0.0,3.0,92,0.00,,,0.00,weatherlink.com 1.10,2013-07-28 10:26:00,
2013-07-28 06:41:00,69.9,68.0,29.99,ENE,60,0.0,0.0,92,0.00,,,0.00,weatherlink.com 1.10,2013-07-28 10:41:00,
2013-07-28 06:56:00,69.3,67.0,30.00,NNW,346,0.0,7.0,92,0.00,,,0.00,weatherlink.com 1.10,2013-07-28 10:56:00,
2013-07-28 07:11:00,69.2,67.0,30.00,North,355,0.0,5.0,92,0.00,,,0.00,weatherlink.com 1.10,2013-07-28 11:11:00,
2013-07-28 07:26:00,69.6,68.0,30.00,NNE,25,0.0,5.0,93,0.00,,,0.00,weatherlink.com 1.10,2013-07-28 11:26:00,
2013-07-28 07:41:00,69.3,67.0,30.00,ENE,67,1.0,7.0,93,0.00,,,0.00,weatherlink.com 1.10,2013-07-28 11:41:00,
2013-07-28 08:26:00,70.2,68.0,29.99,East,98,0.0,2.0,92,0.00,,,0.00,weatherlink.com 1.10,2013-07-28 12:26:00,
2013-07-28 08:56:00,70.7,68.0,30.00,ESE,115,1.0,7.0,91,0.00,,,0.00,weatherlink.com 1.10,2013-07-28 12:56:00,
2013-07-28 09:11:00,71.3,68.0,30.00,ESE,115,3.0,8.0,90,0.00,,,0.00,weatherlink.com 1.10,2013-07-28 13:11:00,
2013-07-28 09:26:00,71.3,68.0,30.00,East,86,0.0,7.0,90,0.00,,,0.00,weatherlink.com 1.10,2013-07-28 13:26:00,
2013-07-28 10:11:00,72.1,68.0,30.00,NNE,22,0.0,4.0,88,0.00,,,0.00,weatherlink.com 1.10,2013-07-28 14:11:00,
2013-07-28 10:27:00,72.3,69.0,30.00,NNE,17,5.0,7.0,88,0.00,,,0.00,weatherlink.com 1.10,2013-07-28 14:27:00,
2013-07-28 10:42:00,72.8,69.0,30.00,NNE,26,0.0,5.0,87,0.00,,,0.00,weatherlink.com 1.10,2013-07-28 14:42:00,
2013-07-28 10:57:00,73.4,69.0,30.00,NNE,29,2.0,4.0,86,0.00,,,0.00,weatherlink.com 1.10,2013-07-28 14:57:00,
2013-07-28 11:12:00,73.7,69.0,30.00,East,89,2.0,6.0,85,0.00,,,0.00,weatherlink.com 1.10,2013-07-28 15:12:00,
2013-07-28 11:27:00,75.2,69.0,29.99,ESE,123,0.0,8.0,82,0.00,,,0.00,weatherlink.com 1.10,2013-07-28 15:27:00,
2013-07-28 11:42:00,75.7,70.0,29.99,East,98,0.0,9.0,81,0.00,,,0.00,weatherlink.com 1.10,2013-07-28 15:42:00,
2013-07-28 11:57:00,76.3,70.0,29.99,SE,137,5.0,8.0,80,0.00,,,0.00,weatherlink.com 1.10,2013-07-28 15:57:00,
2013-07-28 12:12:00,76.5,70.0,29.99,East,96,8.0,8.0,80,0.00,,,0.00,weatherlink.com 1.10,2013-07-28 16:12:00,
2013-07-28 12:27:00,77.4,70.0,29.99,SE,127,0.0,8.0,77,0.00,,,0.00,weatherlink.com 1.10,2013-07-28 16:27:00,
2013-07-28 12:42:00,77.9,70.0,29.99,SE,126,2.0,7.0,76,0.00,,,0.00,weatherlink.com 1.10,2013-07-28 16:42:00,
2013-07-28 12:57:00,77.4,69.0,29.99,SE,138,6.0,9.0,76,0.00,,,0.00,weatherlink.com 1.10,2013-07-28 16:57:00,
2013-07-28 13:12:00,76.9,69.0,29.99,SSE,148,4.0,8.0,76,0.00,,,0.00,weatherlink.com 1.10,2013-07-28 17:12:00,
2013-07-28 13:27:00,77.4,69.0,29.99,SSE,147,3.0,9.0,75,0.00,,,0.00,weatherlink.com 1.10,2013-07-28 17:27:00,
2013-07-28 13:42:00,76.7,69.0,29.99,SE,144,5.0,12.0,76,0.00,,,0.00,weatherlink.com 1.10,2013-07-28 17:42:00,
2013-07-28 13:57:00,75.4,69.0,29.99,ESE,121,1.0,11.0,79,0.00,,,0.00,weatherlink.com 1.10,2013-07-28 17:57:00,
2013-07-28 14:12:00,76.5,69.0,29.99,SE,145,3.0,12.0,77,0.00,,,0.00,weatherlink.com 1.10,2013-07-28 18:12:00,
2013-07-28 14:27:00,77.5,69.0,29.99,SE,142,6.0,13.0,74,0.00,,,0.00,weatherlink.com 1.10,2013-07-28 18:27:00,
2013-07-28 14:42:00,77.1,69.0,29.98,SE,141,8.0,12.0,75,0.00,,,0.00,weatherlink.com 1.10,2013-07-28 18:42:00,
2013-07-28 14:57:00,77.2,69.0,29.98,SSE,147,7.0,8.0,75,0.00,,,0.00,weatherlink.com 1.10,2013-07-28 18:57:00,
2013-07-28 15:12:00,77.4,69.0,29.98,SSE,152,4.0,11.0,75,0.00,,,0.00,weatherlink.com 1.10,2013-07-28 19:12:00,
2013-07-28 15:27:00,76.7,69.0,29.99,SSE,155,8.0,11.0,77,0.00,,,0.00,weatherlink.com 1.10,2013-07-28 19:27:00,
2013-07-28 15:42:00,75.7,68.0,29.98,SSE,148,6.0,14.0,78,0.00,,,0.00,weatherlink.com 1.10,2013-07-28 19:42:00,
2013-07-28 15:57:00,74.1,68.0,29.98,SE,134,5.0,14.0,82,0.00,,,0.00,weatherlink.com 1.10,2013-07-28 19:57:00,
2013-07-28 16:12:00,74.2,68.0,29.99,SSE,164,0.0,10.0,82,0.00,,,0.00,weatherlink.com 1.10,2013-07-28 20:12:00,
2013-07-28 16:27:00,73.9,68.0,29.99,ESE,111,2.0,9.0,82,0.00,,,0.00,weatherlink.com 1.10,2013-07-28 20:27:00,
2013-07-28 16:42:00,73.9,68.0,29.99,ESE,110,0.0,11.0,82,0.00,,,0.00,weatherlink.com 1.10,2013-07-28 20:42:00,
2013-07-28 16:57:00,73.0,68.0,29.99,SSE,155,8.0,12.0,83,0.00,,,0.00,weatherlink.com 1.10,2013-07-28 20:57:00,
2013-07-28 17:12:00,72.3,68.0,29.99,SE,143,4.0,9.0,85,0.00,,,0.00,weatherlink.com 1.10,2013-07-28 21:12:00,
2013-07-28 17:27:00,72.4,68.0,29.99,SE,143,3.0,8.0,85,0.00,,,0.00,weatherlink.com 1.10,2013-07-28 21:27:00,
2013-07-28 17:42:00,71.7,67.0,29.99,SE,132,9.0,11.0,86,0.00,,,0.00,weatherlink.com 1.10,2013-07-28 21:42:00,
2013-07-28 17:57:00,71.8,67.0,29.99,ESE,104,5.0,9.0,85,0.00,,,0.00,weatherlink.com 1.10,2013-07-28 21:57:00,
2013-07-28 18:12:00,71.3,67.0,29.99,ESE,107,2.0,11.0,86,0.00,,,0.00,weatherlink.com 1.10,2013-07-28 22:12:00,
2013-07-28 18:27:00,71.1,67.0,29.99,SSE,147,5.0,8.0,87,0.00,,,0.00,weatherlink.com 1.10,2013-07-28 22:27:00,
2013-07-28 18:42:00,70.9,67.0,30.00,SE,133,2.0,10.0,87,0.00,,,0.00,weatherlink.com 1.10,2013-07-28 22:42:00,
2013-07-28 18:57:00,70.6,67.0,30.00,SE,130,2.0,7.0,87,0.00,,,0.00,weatherlink.com 1.10,2013-07-28 22:57:00,
2013-07-28 19:12:00,70.4,67.0,30.00,ESE,117,0.0,7.0,88,0.00,,,0.00,weatherlink.com 1.10,2013-07-28 23:12:00,
2013-07-28 19:27:00,70.0,67.0,30.01,SE,140,0.0,7.0,89,0.00,,,0.00,weatherlink.com 1.10,2013-07-28 23:27:00,
2013-07-28 19:42:00,69.9,67.0,30.01,SE,124,0.0,5.0,89,0.00,,,0.00,weatherlink.com 1.10,2013-07-28 23:42:00,
2013-07-28 19:57:00,69.9,67.0,30.01,SE,125,0.0,3.0,89,0.00,,,0.00,weatherlink.com 1.10,2013-07-28 23:57:00,
2013-07-28 20:12:00,69.9,67.0,30.01,SE,145,4.0,6.0,89,0.00,,,0.00,weatherlink.com 1.10,2013-07-29 00:12:00,
2013-07-28 20:27:00,69.6,66.0,30.02,SE,145,7.0,8.0,89,0.00,,,0.00,weatherlink.com 1.10,2013-07-29 00:27:00,
2013-07-28 20:42:00,69.4,66.0,30.02,ESE,109,7.0,8.0,90,0.00,,,0.00,weatherlink.com 1.10,2013-07-29 00:42:00,
2013-07-28 20:57:00,69.4,66.0,30.02,SE,127,0.0,5.0,90,0.00,,,0.00,weatherlink.com 1.10,2013-07-29 00:57:00,
2013-07-28 21:12:00,69.2,66.0,30.02,SE,130,6.0,8.0,90,0.00,,,0.00,weatherlink.com 1.10,2013-07-29 01:12:00,
2013-07-28 21:27:00,68.9,66.0,30.02,SE,124,0.0,8.0,91,0.00,,,0.00,weatherlink.com 1.10,2013-07-29 01:27:00,
2013-07-28 21:42:00,68.7,66.0,30.02,ESE,123,1.0,7.0,91,0.00,,,0.00,weatherlink.com 1.10,2013-07-29 01:42:00,
2013-07-28 21:57:00,68.7,66.0,30.02,SE,132,3.0,5.0,91,0.00,,,0.00,weatherlink.com 1.10,2013-07-29 01:57:00,
2013-07-28 22:12:00,68.6,66.0,30.02,SE,135,2.0,7.0,91,0.00,,,0.00,weatherlink.com 1.10,2013-07-29 02:12:00,
2013-07-28 22:27:00,68.4,66.0,30.01,SE,139,0.0,5.0,92,0.00,,,0.00,weatherlink.com 1.10,2013-07-29 02:27:00,
2013-07-28 22:42:00,68.1,66.0,30.01,SE,134,1.0,8.0,92,0.00,,,0.00,weatherlink.com 1.10,2013-07-29 02:42:00,
2013-07-28 23:12:00,67.8,66.0,30.02,SE,130,0.0,7.0,92,0.00,,,0.00,weatherlink.com 1.10,2013-07-29 03:12:00,
2013-07-28 23:27:00,67.7,66.0,30.02,SE,141,0.0,6.0,93,0.00,,,0.00,weatherlink.com 1.10,2013-07-29 03:27:00,
2013-07-28 23:42:00,67.6,66.0,30.02,SSE,149,0.0,8.0,93,0.00,,,0.00,weatherlink.com 1.10,2013-07-29 03:42:00,
2013-07-28 23:57:00,67.7,66.0,30.03,SSE,151,0.0,4.0,93,0.00,,,0.00,weatherlink.com 1.10,2013-07-29 03:57:00,